Flag for U.S.A. Weather past 2 weeks in Walnut Creek, California, U.S.A.

Now
63 °F

Clear.


Feels Like: 63 °F
Forecast: 60 / 81 °F
Wind: 8 mph from Southwest

Location: Buchanan Field

Current Time: Aug 5, 2015 at 1:38:17 AM

Latest Report: Aug 5, 2015 at 12:53 AM


Visibility: 10 mi

Pressure: 29.97 "Hg

Humidity: 73%

Dew point: 54 °F

Location of Walnut CreekLocation

Historic Weather in Walnut Creek — Graph

°F

Walnut Creek temperature yesterday

Maximum temperature yesterday: 75 °F (at 5:53 PM)
Minimum temperature yesterday: 61 °F (at 5:53 AM)
Average temperature yesterday: 68 °F

Past Weeks' High & Low Weather Summary

 TemperatureHumidityPressure
High102 °F (Jul 28, 4:53 PM)81% (Jul 26, 4:53 AM)30.06 "Hg (Jul 26, 4:53 AM)
Low60 °F (Jul 24, 5:53 AM)12% (Jul 28, 1:53 PM)29.74 "Hg (Jul 28, 5:53 PM)
Average72 °F55%29.89 "Hg
* Reported Jul 20 11:53 PM — Aug 4 11:53 PM, Walnut Creek, Weather by CustomWeather, © 2015

Note: Actual official high and low records may vary slightly from our data, if they occured in-between our weather recording intervals... More about our weather records

Advertising

Walnut Creek weather history for previous 24 hours

 ConditionsComfort  
Time TempWeatherWind HumidityBarometerVisibility
11:53 PM
Tue, Aug 4
64 °FClear.8 mph70%29.97 "Hg10 mi
10:53 PM65 °FClear.6 mph68%29.96 "Hg10 mi
9:53 PM66 °FPassing clouds.8 mph65%29.96 "Hg10 mi
8:53 PM67 °FScattered clouds.12 mph61%29.95 "Hg10 mi
7:53 PM69 °FPassing clouds.14 mph55%29.93 "Hg10 mi
6:53 PM72 °FSunny.14 mph52%29.92 "Hg10 mi
5:53 PM75 °FScattered clouds.12 mph45%29.93 "Hg10 mi
4:53 PM74 °FSunny.14 mph46%29.94 "Hg10 mi
3:53 PM73 °FSunny.15 mph46%29.95 "Hg10 mi
2:53 PM73 °FPassing clouds.16 mph46%29.95 "Hg10 mi
1:53 PM74 °FSunny.8 mph43%29.94 "Hg10 mi
12:53 PM71 °FPassing clouds.8 mph49%29.95 "Hg10 mi
11:53 AM73 °FScattered clouds.10 mph46%29.95 "Hg10 mi
10:53 AM73 °FPassing clouds.12 mph46%29.94 "Hg10 mi
9:53 AM70 °FScattered clouds.12 mph53%29.93 "Hg10 mi
9:03 AM67 °FPartly sunny.15 mph59%29.98 "Hg10 mi
8:53 AM66 °FScattered clouds.14 mph61%29.93 "Hg10 mi
7:53 AM63 °FSunny.8 mph70%29.93 "Hg10 mi
6:53 AM62 °FClear.7 mph73%29.92 "Hg10 mi
5:53 AM61 °FClear.7 mph75%29.91 "Hg10 mi
4:53 AM62 °FClear.7 mph75%29.91 "Hg10 mi
3:53 AM63 °FClear.7 mph75%29.92 "Hg10 mi
2:53 AM62 °FClear.7 mph78%29.91 "Hg10 mi
1:53 AM63 °FClear.7 mph75%29.92 "Hg10 mi
Weather by CustomWeather, © 2015

See weather overviewHow to use our weather pages